TimeEST,TemperatureF,Dew PointF,Humidity,Sea Level PressureIn,VisibilityMPH,Wind Direction,Wind SpeedMPH,Gust SpeedMPH,PrecipitationIn,Events,Conditions,WindDirDegrees,DateUTC
12:53 AM,41.0,25.0,53,30.29,10.0,West,6.9,-,N/A,,Clear,270,2012-11-30 05:53:00
1:53 AM,39.0,25.0,57,30.30,10.0,West,4.6,-,N/A,,Clear,260,2012-11-30 06:53:00
2:53 AM,37.9,25.0,60,30.30,10.0,West,3.5,-,N/A,,Clear,260,2012-11-30 07:53:00
3:53 AM,36.0,25.0,64,30.30,10.0,WNW,3.5,-,N/A,,Clear,290,2012-11-30 08:53:00
4:53 AM,30.9,23.0,72,30.32,9.0,NNW,3.5,-,N/A,,Clear,330,2012-11-30 09:53:00
5:53 AM,30.0,24.1,79,30.34,9.0,Calm,Calm,-,N/A,,Clear,0,2012-11-30 10:53:00
6:53 AM,28.9,24.1,82,30.38,9.0,NE,4.6,-,N/A,,Clear,40,2012-11-30 11:53:00
7:53 AM,30.9,25.0,79,30.40,8.0,Calm,Calm,-,N/A,,Clear,0,2012-11-30 12:53:00
8:53 AM,35.1,26.1,70,30.41,10.0,NE,6.9,-,N/A,,Clear,40,2012-11-30 13:53:00
9:53 AM,39.0,28.0,65,30.43,10.0,Variable,6.9,-,N/A,,Scattered Clouds,0,2012-11-30 14:53:00
10:53 AM,39.0,27.0,62,30.44,10.0,ENE,9.2,-,N/A,,Overcast,70,2012-11-30 15:53:00
11:53 AM,37.9,26.1,62,30.43,10.0,NE,6.9,-,N/A,,Mostly Cloudy,40,2012-11-30 16:53:00
12:53 PM,39.0,24.1,55,30.42,10.0,Variable,5.8,-,N/A,,Partly Cloudy,0,2012-11-30 17:53:00
1:53 PM,39.0,21.9,50,30.43,10.0,NE,5.8,-,N/A,,Overcast,50,2012-11-30 18:53:00
2:53 PM,37.0,19.0,48,30.44,10.0,ENE,8.1,-,N/A,,Overcast,70,2012-11-30 19:53:00
3:53 PM,37.0,18.0,46,30.46,10.0,NE,3.5,-,N/A,,Overcast,40,2012-11-30 20:53:00
4:53 PM,36.0,16.0,44,30.47,10.0,NNE,5.8,-,N/A,,Overcast,30,2012-11-30 21:53:00
5:53 PM,33.1,19.9,59,30.48,10.0,NNE,5.8,-,N/A,,Overcast,30,2012-11-30 22:53:00
6:53 PM,32.0,19.0,59,30.50,10.0,NNE,6.9,-,N/A,,Overcast,30,2012-11-30 23:53:00
7:53 PM,32.0,21.9,66,30.51,10.0,NE,5.8,-,N/A,,Mostly Cloudy,40,2012-12-01 00:53:00
8:53 PM,33.1,23.0,66,30.52,10.0,ENE,6.9,-,N/A,,Overcast,60,2012-12-01 01:53:00
9:53 PM,33.1,21.9,64,30.52,10.0,NE,6.9,-,N/A,,Overcast,50,2012-12-01 02:53:00
10:53 PM,33.1,21.9,64,30.53,10.0,NE,6.9,-,N/A,,Overcast,50,2012-12-01 03:53:00